Location: Crescent
(42.8242°N, 73.7329°W)
Time: 21:00:27
(UTC+00:00)

SR - Pass Details

Date: 19 February 2026
Orbit: 573 x 848 km, 66.7° (Epoch: 6 March)

Event Time Altitude Azimuth Distance (km) Brightness Sun altitude
Rises 10:14:31 0° 247° (WSW) 2,781 - -17.5°
Reaches altitude 10° 10:17:08 10° 264° (W) 1,903 - -17.0°
Exits shadow 10:20:22 21° 314° (NW) 1,345 ? -16.4°
Maximum altitude 10:20:26 21° 315° (NW) 1,345 ? -16.4°
Drops below altitude 10° 10:23:52 10° 6° (N) 1,991 ? -15.8°
Sets 10:26:41 0° 22° (NNE) 2,949 ? -15.3°
